| time (UTC) | temp C | wind direction | speed KPH | gust KPH | rain 1hr cm | rain 24hr cm | rain mn cm | humidity % | barometer mb |
| 20260509060103 | 18 | 77 | 3.2 | 9.7 | 0.00 | 0.00 | 0.00 | 53 | 1021.1 |
| 20260509055604 | 18 | 77 | 3.2 | 9.7 | 0.00 | 0.00 | 0.00 | 53 | 1021.1 |
| 20260509055104 | 18 | 77 | 3.2 | 9.7 | 0.00 | 0.00 | 0.00 | 53 | 1021.1 |
| 20260509054103 | 19 | 77 | 3.2 | 9.7 | 0.00 | 0.00 | 0.00 | 52 | 1021.1 |
| 20260509053603 | 19 | 77 | 3.2 | 9.7 | 0.00 | 0.00 | 0.00 | 53 | 1021.1 |
| 20260509053103 | 19 | 77 | 3.2 | 9.7 | 0.00 | 0.00 | 0.00 | 52 | 1021.0 |
| 20260509052604 | 20 | 77 | 3.2 | 9.7 | 0.00 | 0.00 | 0.00 | 52 | 1021.0 |
| 20260509052103 | 20 | 77 | 3.2 | 9.7 | 0.00 | 0.00 | 0.00 | 51 | 1021.1 |
| 20260509050604 | 20 | 77 | 3.2 | 9.7 | 0.00 | 0.00 | 0.00 | 47 | 1021.1 |
| 20260509045603 | 20 | 77 | 3.2 | 9.7 | 0.00 | 0.00 | 0.00 | 47 | 1021.1 |
| 20260509045103 | 20 | 77 | 3.2 | 9.7 | 0.00 | 0.00 | 0.00 | 49 | 1021.1 |
| 20260509044603 | 20 | 77 | 3.2 | 9.7 | 0.00 | 0.00 | 0.00 | 49 | 1021.1 |
| 20260509044103 | 20 | 77 | 3.2 | 9.7 | 0.00 | 0.00 | 0.00 | 47 | 1021.1 |
| 20260509043604 | 20 | 77 | 3.2 | 9.7 | 0.00 | 0.00 | 0.00 | 47 | 1021.0 |
| 20260509042603 | 21 | 77 | 3.2 | 9.7 | 0.00 | 0.00 | 0.00 | 46 | 1020.9 |
| 20260509042103 | 21 | 77 | 3.2 | 9.7 | 0.00 | 0.00 | 0.00 | 45 | 1020.8 |
| 20260509041603 | 21 | 77 | 3.2 | 9.7 | 0.00 | 0.00 | 0.00 | 45 | 1020.8 |
| 20260509041104 | 21 | 77 | 3.2 | 9.7 | 0.00 | 0.00 | 0.00 | 45 | 1020.7 |
| 20260509035604 | 21 | 77 | 3.2 | 9.7 | 0.00 | 0.00 | 0.00 | 45 | 1020.5 |
| 20260509035103 | 21 | 77 | 3.2 | 9.7 | 0.00 | 0.00 | 0.00 | 45 | 1020.5 |
| 20260509034603 | 21 | 77 | 3.2 | 9.7 | 0.00 | 0.00 | 0.00 | 45 | 1020.5 |
| 20260509034103 | 21 | 77 | 3.2 | 9.7 | 0.00 | 0.00 | 0.00 | 44 | 1020.4 |
| 20260509033603 | 21 | 77 | 3.2 | 9.7 | 0.00 | 0.00 | 0.00 | 44 | 1020.3 |
| 20260509033104 | 21 | 77 | 3.2 | 9.7 | 0.00 | 0.00 | 0.00 | 44 | 1020.3 |
| 20260509032603 | 21 | 77 | 3.2 | 9.7 | 0.00 | 0.00 | 0.00 | 44 | 1020.3 |
| 20260509032103 | 22 | 77 | 3.2 | 9.7 | 0.00 | 0.00 | 0.00 | 44 | 1020.3 |
| 20260509031604 | 22 | 77 | 3.2 | 9.7 | 0.00 | 0.00 | 0.00 | 43 | 1020.2 |
| 20260509031103 | 22 | 77 | 3.2 | 9.7 | 0.00 | 0.00 | 0.00 | 42 | 1020.2 |
| 20260509030603 | 22 | 77 | 3.2 | 9.7 | 0.00 | 0.00 | 0.00 | 41 | 1020.1 |
| 20260509030104 | 22 | 77 | 3.2 | 9.7 | 0.00 | 0.00 | 0.00 | 41 | 1020.1 |
| 20260509025604 | 22 | 77 | 3.2 | 9.7 | 0.00 | 0.00 | 0.00 | 41 | 1020.0 |
| 20260509025103 | 22 | 77 | 3.2 | 9.7 | 0.00 | 0.00 | 0.00 | 41 | 1020.0 |
| 20260509024604 | 22 | 77 | 3.2 | 9.7 | 0.00 | 0.00 | 0.00 | 42 | 1020.0 |
| 20260509024104 | 22 | 77 | 3.2 | 9.7 | 0.00 | 0.00 | 0.00 | 41 | 1019.9 |
| 20260509023603 | 23 | 77 | 3.2 | 9.7 | 0.00 | 0.00 | 0.00 | 41 | 1019.9 |
| 20260509023103 | 23 | 77 | 3.2 | 9.7 | 0.00 | 0.00 | 0.00 | 40 | 1019.8 |
| 20260509022603 | 23 | 77 | 3.2 | 9.7 | 0.00 | 0.00 | 0.00 | 40 | 1019.7 |
| 20260509022103 | 23 | 77 | 3.2 | 9.7 | 0.00 | 0.00 | 0.00 | 40 | 1019.6 |
| 20260509021604 | 24 | 77 | 3.2 | 9.7 | 0.00 | 0.00 | 0.00 | 39 | 1019.6 |
| 20260509021104 | 25 | 77 | 3.2 | 9.7 | 0.00 | 0.00 | 0.00 | 39 | 1019.5 |
| 20260509020604 | 25 | 77 | 3.2 | 9.7 | 0.00 | 0.00 | 0.00 | 38 | 1019.4 |
| 20260509020104 | 25 | 77 | 3.2 | 9.7 | 0.00 | 0.00 | 0.00 | 37 | 1019.4 |
| 20260509015104 | 26 | 77 | 3.2 | 9.7 | 0.00 | 0.00 | 0.00 | 34 | 1019.2 |
| 20260509013603 | 26 | 77 | 3.2 | 9.7 | 0.00 | 0.00 | 0.00 | 35 | 1019.0 |
| 20260509013104 | 26 | 77 | 3.2 | 9.7 | 0.00 | 0.00 | 0.00 | 34 | 1019.0 |
| 20260509012604 | 26 | 77 | 3.2 | 9.7 | 0.00 | 0.00 | 0.00 | 34 | 1019.0 |
| 20260509012103 | 27 | 77 | 3.2 | 9.7 | 0.00 | 0.00 | 0.00 | 34 | 1018.9 |
| 20260509011603 | 27 | 77 | 3.2 | 9.7 | 0.00 | 0.00 | 0.00 | 33 | 1018.8 |
| 20260509011104 | 27 | 77 | 3.2 | 9.7 | 0.00 | 0.00 | 0.00 | 33 | 1018.7 |
| 20260509010604 | 27 | 77 | 3.2 | 9.7 | 0.00 | 0.00 | 0.00 | 33 | 1018.7 |
| 20260509010103 | 27 | 77 | 3.2 | 9.7 | 0.00 | 0.00 | 0.00 | 33 | 1018.7 |
| 20260509005604 | 27 | 77 | 3.2 | 9.7 | 0.00 | 0.00 | 0.00 | 32 | 1018.6 |
| 20260509005104 | 28 | 77 | 3.2 | 9.7 | 0.00 | 0.00 | 0.00 | 32 | 1018.6 |
| 20260509004603 | 28 | 77 | 3.2 | 9.7 | 0.00 | 0.00 | 0.00 | 31 | 1018.5 |
| 20260509004103 | 28 | 77 | 3.2 | 9.7 | 0.00 | 0.00 | 0.00 | 31 | 1018.5 |
| 20260509003603 | 28 | 77 | 3.2 | 9.7 | 0.00 | 0.00 | 0.00 | 31 | 1018.4 |
| 20260509003104 | 28 | 77 | 3.2 | 9.7 | 0.00 | 0.00 | 0.00 | 31 | 1018.4 |
| 20260509002603 | 28 | 77 | 3.2 | 9.7 | 0.00 | 0.00 | 0.00 | 31 | 1018.4 |
| 20260509002104 | 28 | 77 | 3.2 | 9.7 | 0.00 | 0.00 | 0.00 | 30 | 1018.3 |
| 20260509001603 | 29 | 77 | 3.2 | 9.7 | 0.00 | 0.00 | 0.00 | 31 | 1018.3 |
| 20260509001103 | 29 | 77 | 3.2 | 9.7 | 0.00 | 0.00 | 0.00 | 30 | 1018.2 |
| 20260509000604 | 29 | 77 | 3.2 | 9.7 | 0.00 | 0.00 | 0.00 | 30 | 1018.2 |
| 20260509000104 | 29 | 77 | 3.2 | 9.7 | 0.00 | 0.00 | 0.00 | 30 | 1018.2 |
| 20260508235603 | 29 | 77 | 3.2 | 9.7 | 0.00 | 0.00 | 0.00 | 30 | 1018.1 |
| 20260508235104 | 29 | 77 | 3.2 | 9.7 | 0.00 | 0.00 | 0.00 | 30 | 1018.1 |
| 20260508234604 | 29 | 77 | 3.2 | 9.7 | 0.00 | 0.00 | 0.00 | 31 | 1018.1 |
| 20260508233604 | 29 | 77 | 3.2 | 9.7 | 0.00 | 0.00 | 0.00 | 31 | 1018.1 |
| 20260508233103 | 29 | 77 | 3.2 | 9.7 | 0.00 | 0.00 | 0.00 | 30 | 1018.0 |
| 20260508232103 | 29 | 77 | 3.2 | 9.7 | 0.00 | 0.00 | 0.00 | 29 | 1018.0 |
| 20260508231103 | 30 | 77 | 3.2 | 9.7 | 0.00 | 0.00 | 0.00 | 29 | 1018.0 |
| 20260508230604 | 30 | 77 | 3.2 | 9.7 | 0.00 | 0.00 | 0.00 | 30 | 1017.9 |
| 20260508230104 | 30 | 77 | 3.2 | 9.7 | 0.00 | 0.00 | 0.00 | 30 | 1018.0 |
| 20260508225604 | 30 | 77 | 3.2 | 9.7 | 0.00 | 0.00 | 0.00 | 29 | 1017.9 |
| 20260508225104 | 30 | 77 | 3.2 | 9.7 | 0.00 | 0.00 | 0.00 | 28 | 1017.9 |
| 20260508224603 | 30 | 77 | 3.2 | 9.7 | 0.00 | 0.00 | 0.00 | 29 | 1017.9 |
| 20260508224103 | 30 | 77 | 3.2 | 9.7 | 0.00 | 0.00 | 0.00 | 28 | 1017.9 |
| 20260508222604 | 30 | 77 | 3.2 | 9.7 | 0.00 | 0.00 | 0.00 | 27 | 1018.0 |
| 20260508222104 | 30 | 77 | 3.2 | 9.7 | 0.00 | 0.00 | 0.00 | 27 | 1018.1 |
| 20260508221604 | 30 | 77 | 3.2 | 9.7 | 0.00 | 0.00 | 0.00 | 27 | 1018.1 |
| 20260508221104 | 30 | 77 | 3.2 | 9.7 | 0.00 | 0.00 | 0.00 | 27 | 1018.1 |
| 20260508220103 | 30 | 77 | 3.2 | 9.7 | 0.00 | 0.00 | 0.00 | 27 | 1018.1 |
| 20260508215603 | 30 | 77 | 3.2 | 9.7 | 0.00 | 0.00 | 0.00 | 28 | 1018.1 |
| 20260508215103 | 30 | 77 | 3.2 | 9.7 | 0.00 | 0.00 | 0.00 | 28 | 1018.1 |
| 20260508214603 | 30 | 77 | 3.2 | 9.7 | 0.00 | 0.00 | 0.00 | 28 | 1018.2 |
| 20260508213603 | 30 | 77 | 3.2 | 9.7 | 0.00 | 0.00 | 0.00 | 30 | 1018.2 |
| 20260508213104 | 30 | 77 | 3.2 | 9.7 | 0.00 | 0.00 | 0.00 | 29 | 1018.3 |
| 20260508212603 | 30 | 77 | 3.2 | 9.7 | 0.00 | 0.00 | 0.00 | 28 | 1018.3 |
| 20260508212103 | 30 | 77 | 3.2 | 9.7 | 0.00 | 0.00 | 0.00 | 30 | 1018.3 |
| 20260508211603 | 30 | 77 | 3.2 | 9.7 | 0.00 | 0.00 | 0.00 | 29 | 1018.4 |
| 20260508211104 | 30 | 77 | 3.2 | 9.7 | 0.00 | 0.00 | 0.00 | 31 | 1018.5 |
| 20260508210603 | 29 | 77 | 3.2 | 9.7 | 0.00 | 0.00 | 0.00 | 30 | 1018.5 |
| 20260508210104 | 30 | 77 | 3.2 | 9.7 | 0.00 | 0.00 | 0.00 | 31 | 1018.6 |
| 20260508205604 | 30 | 77 | 3.2 | 9.7 | 0.00 | 0.00 | 0.00 | 30 | 1018.6 |
| 20260508203103 | 29 | 77 | 3.2 | 9.7 | 0.00 | 0.00 | 0.00 | 31 | 1019.0 |
| 20260508202603 | 29 | 77 | 3.2 | 9.7 | 0.00 | 0.00 | 0.00 | 32 | 1019.0 |
| 20260508202104 | 29 | 77 | 3.2 | 9.7 | 0.00 | 0.00 | 0.00 | 33 | 1019.0 |
| 20260508201604 | 29 | 77 | 3.2 | 9.7 | 0.00 | 0.00 | 0.00 | 32 | 1019.2 |
| 20260508201104 | 29 | 77 | 3.2 | 9.7 | 0.00 | 0.00 | 0.00 | 32 | 1019.1 |
| 20260508200604 | 29 | 77 | 3.2 | 9.7 | 0.00 | 0.00 | 0.00 | 33 | 1019.3 |
| 20260508200104 | 28 | 77 | 3.2 | 9.7 | 0.00 | 0.00 | 0.00 | 33 | 1019.4 |
| 20260508195603 | 28 | 77 | 3.2 | 9.7 | 0.00 | 0.00 | 0.00 | 33 | 1019.4 |
| 20260508195103 | 28 | 77 | 3.2 | 9.7 | 0.00 | 0.00 | 0.00 | 34 | 1019.5 |
| 20260508194604 | 28 | 77 | 3.2 | 9.7 | 0.00 | 0.00 | 0.00 | 34 | 1019.6 |
| 20260508194104 | 28 | 77 | 3.2 | 9.7 | 0.00 | 0.00 | 0.00 | 34 | 1019.7 |
| 20260508193603 | 29 | 77 | 3.2 | 9.7 | 0.00 | 0.00 | 0.00 | 33 | 1019.7 |
| 20260508192604 | 28 | 77 | 3.2 | 9.7 | 0.00 | 0.00 | 0.00 | 34 | 1019.8 |
| 20260508192103 | 28 | 77 | 3.2 | 9.7 | 0.00 | 0.00 | 0.00 | 34 | 1019.8 |
| 20260508191603 | 28 | 77 | 3.2 | 9.7 | 0.00 | 0.00 | 0.00 | 34 | 1019.8 |
| 20260508191103 | 28 | 77 | 3.2 | 9.7 | 0.00 | 0.00 | 0.00 | 34 | 1019.9 |
| 20260508190604 | 28 | 77 | 3.2 | 9.7 | 0.00 | 0.00 | 0.00 | 34 | 1020.0 |
| 20260508190104 | 28 | 77 | 3.2 | 9.7 | 0.00 | 0.00 | 0.00 | 34 | 1020.0 |
| 20260508185603 | 28 | 77 | 3.2 | 9.7 | 0.00 | 0.00 | 0.00 | 34 | 1020.1 |
| 20260508185104 | 28 | 77 | 3.2 | 9.7 | 0.00 | 0.00 | 0.00 | 35 | 1020.1 |
| 20260508184604 | 28 | 77 | 3.2 | 9.7 | 0.00 | 0.00 | 0.00 | 35 | 1020.1 |
| 20260508184104 | 27 | 77 | 3.2 | 9.7 | 0.00 | 0.00 | 0.00 | 35 | 1020.2 |
| 20260508183604 | 27 | 77 | 3.2 | 9.7 | 0.00 | 0.00 | 0.00 | 36 | 1020.2 |
| 20260508183104 | 28 | 77 | 3.2 | 9.7 | 0.00 | 0.00 | 0.00 | 36 | 1020.2 |
| 20260508182604 | 28 | 77 | 3.2 | 9.7 | 0.00 | 0.00 | 0.00 | 35 | 1020.2 |
| 20260508182104 | 27 | 77 | 3.2 | 9.7 | 0.00 | 0.00 | 0.00 | 36 | 1020.2 |
| 20260508181604 | 27 | 77 | 3.2 | 9.7 | 0.00 | 0.00 | 0.00 | 35 | 1020.3 |
| 20260508181104 | 27 | 77 | 3.2 | 9.7 | 0.00 | 0.00 | 0.00 | 36 | 1020.3 |
| 20260508180604 | 27 | 77 | 3.2 | 9.7 | 0.00 | 0.00 | 0.00 | 35 | 1020.3 |
| 20260508180104 | 27 | 77 | 3.2 | 9.7 | 0.00 | 0.00 | 0.00 | 37 | 1020.4 |
| 20260508175603 | 27 | 77 | 3.2 | 9.7 | 0.00 | 0.00 | 0.00 | 41 | 1020.4 |
| 20260508175103 | 27 | 77 | 3.2 | 9.7 | 0.00 | 0.00 | 0.00 | 39 | 1020.4 |
| 20260508174604 | 27 | 77 | 3.2 | 9.7 | 0.00 | 0.00 | 0.00 | 40 | 1020.5 |
| 20260508174103 | 27 | 77 | 3.2 | 9.7 | 0.00 | 0.00 | 0.00 | 41 | 1020.5 |
| 20260508173604 | 27 | 77 | 3.2 | 9.7 | 0.00 | 0.00 | 0.00 | 41 | 1020.6 |
| 20260508172104 | 27 | 77 | 3.2 | 9.7 | 0.00 | 0.00 | 0.00 | 41 | 1020.7 |
| 20260508171103 | 26 | 77 | 3.2 | 9.7 | 0.00 | 0.00 | 0.00 | 43 | 1020.8 |
| 20260508170603 | 26 | 77 | 3.2 | 9.7 | 0.00 | 0.00 | 0.00 | 43 | 1020.8 |
| 20260508170104 | 27 | 77 | 3.2 | 9.7 | 0.00 | 0.00 | 0.00 | 41 | 1020.9 |
| 20260508165604 | 26 | 77 | 3.2 | 9.7 | 0.00 | 0.00 | 0.00 | 41 | 1020.9 |
| 20260508165104 | 26 | 77 | 3.2 | 9.7 | 0.00 | 0.00 | 0.00 | 41 | 1021.0 |
| 20260508164604 | 26 | 77 | 3.2 | 9.7 | 0.00 | 0.00 | 0.00 | 42 | 1021.0 |
| 20260508164103 | 26 | 77 | 3.2 | 9.7 | 0.00 | 0.00 | 0.00 | 41 | 1021.0 |
| 20260508163103 | 26 | 77 | 3.2 | 9.7 | 0.00 | 0.00 | 0.00 | 41 | 1021.1 |
| 20260508162604 | 25 | 77 | 3.2 | 9.7 | 0.00 | 0.00 | 0.00 | 42 | 1021.2 |
| 20260508162104 | 26 | 77 | 3.2 | 9.7 | 0.00 | 0.00 | 0.00 | 43 | 1021.3 |
| 20260508161603 | 26 | 77 | 3.2 | 9.7 | 0.00 | 0.00 | 0.00 | 41 | 1021.3 |
| 20260508161103 | 26 | 77 | 3.2 | 9.7 | 0.00 | 0.00 | 0.00 | 40 | 1021.3 |
| 20260508160604 | 25 | 77 | 3.2 | 9.7 | 0.00 | 0.00 | 0.00 | 39 | 1021.4 |
| 20260508160103 | 25 | 77 | 3.2 | 9.7 | 0.00 | 0.00 | 0.00 | 38 | 1021.4 |
| 20260508155604 | 25 | 77 | 3.2 | 9.7 | 0.00 | 0.00 | 0.00 | 38 | 1021.4 |
| 20260508155104 | 25 | 77 | 3.2 | 9.7 | 0.00 | 0.00 | 0.00 | 37 | 1021.5 |
| 20260508154103 | 24 | 77 | 3.2 | 9.7 | 0.00 | 0.00 | 0.00 | 39 | 1021.5 |
| 20260508153104 | 23 | 77 | 3.2 | 9.7 | 0.00 | 0.00 | 0.00 | 42 | 1021.5 |
| 20260508152604 | 23 | 77 | 3.2 | 9.7 | 0.00 | 0.00 | 0.00 | 42 | 1021.6 |
| 20260508152103 | 22 | 77 | 3.2 | 9.7 | 0.00 | 0.00 | 0.00 | 43 | 1021.6 |
| 20260508151604 | 22 | 77 | 3.2 | 9.7 | 0.00 | 0.00 | 0.00 | 43 | 1021.6 |
| 20260508151104 | 22 | 77 | 3.2 | 9.7 | 0.00 | 0.00 | 0.00 | 44 | 1021.6 |
| 20260508150604 | 22 | 77 | 3.2 | 9.7 | 0.00 | 0.00 | 0.00 | 44 | 1021.6 |
| 20260508145603 | 21 | 77 | 3.2 | 9.7 | 0.00 | 0.00 | 0.00 | 46 | 1021.7 |
| 20260508145104 | 20 | 77 | 3.2 | 9.7 | 0.00 | 0.00 | 0.00 | 46 | 1021.7 |
| 20260508144604 | 20 | 77 | 3.2 | 9.7 | 0.00 | 0.00 | 0.00 | 47 | 1021.7 |
| 20260508143603 | 20 | 77 | 3.2 | 9.7 | 0.00 | 0.00 | 0.00 | 48 | 1021.8 |
| 20260508143103 | 19 | 77 | 3.2 | 9.7 | 0.00 | 0.00 | 0.00 | 48 | 1021.8 |
| 20260508142603 | 19 | 77 | 3.2 | 9.7 | 0.00 | 0.00 | 0.00 | 49 | 1021.8 |
| 20260508142103 | 19 | 77 | 3.2 | 9.7 | 0.00 | 0.00 | 0.00 | 49 | 1021.8 |
| 20260508141604 | 18 | 77 | 3.2 | 9.7 | 0.00 | 0.00 | 0.00 | 50 | 1021.8 |
| 20260508141103 | 18 | 77 | 3.2 | 9.7 | 0.00 | 0.00 | 0.00 | 51 | 1021.8 |
| 20260508140603 | 18 | 77 | 3.2 | 9.7 | 0.00 | 0.00 | 0.00 | 52 | 1021.9 |
| 20260508135603 | 17 | 77 | 3.2 | 9.7 | 0.00 | 0.00 | 0.00 | 54 | 1021.8 |
| 20260508134605 | 17 | 77 | 3.2 | 9.7 | 0.00 | 0.00 | 0.00 | 56 | 1021.9 |
| 20260508134103 | 16 | 77 | 3.2 | 9.7 | 0.00 | 0.00 | 0.00 | 57 | 1021.8 |
| 20260508133103 | 16 | 77 | 3.2 | 9.7 | 0.00 | 0.00 | 0.00 | 58 | 1021.8 |
| 20260508132604 | 16 | 77 | 3.2 | 9.7 | 0.00 | 0.00 | 0.00 | 59 | 1021.8 |
| 20260508132103 | 16 | 77 | 3.2 | 9.7 | 0.00 | 0.00 | 0.00 | 59 | 1021.8 |
| 20260508131603 | 15 | 77 | 3.2 | 9.7 | 0.00 | 0.00 | 0.00 | 59 | 1021.8 |
| 20260508130603 | 15 | 77 | 3.2 | 9.7 | 0.00 | 0.00 | 0.00 | 61 | 1021.8 |
| 20260508125603 | 15 | 77 | 3.2 | 9.7 | 0.00 | 0.00 | 0.00 | 62 | 1021.8 |
| 20260508125104 | 15 | 77 | 3.2 | 9.7 | 0.00 | 0.00 | 0.00 | 61 | 1021.8 |
| 20260508124604 | 15 | 77 | 3.2 | 9.7 | 0.00 | 0.00 | 0.00 | 60 | 1021.8 |
| 20260508124113 | 15 | 77 | 3.2 | 9.7 | 0.00 | 0.00 | 0.00 | 61 | 1021.8 |
| 20260508123604 | 15 | 77 | 3.2 | 9.7 | 0.00 | 0.00 | 0.00 | 60 | 1021.8 |
| 20260508123103 | 15 | 77 | 3.2 | 9.7 | 0.00 | 0.00 | 0.00 | 60 | 1021.8 |
| 20260508122604 | 14 | 77 | 3.2 | 9.7 | 0.00 | 0.00 | 0.00 | 62 | 1021.8 |
| 20260508122104 | 15 | 77 | 3.2 | 9.7 | 0.00 | 0.00 | 0.00 | 62 | 1021.8 |
| 20260508121604 | 15 | 77 | 3.2 | 9.7 | 0.00 | 0.00 | 0.00 | 62 | 1021.8 |
| 20260508121103 | 15 | 77 | 3.2 | 9.7 | 0.00 | 0.00 | 0.00 | 61 | 1021.8 |
| 20260508120603 | 15 | 77 | 3.2 | 9.7 | 0.00 | 0.00 | 0.00 | 60 | 1021.8 |
| 20260508120103 | 15 | 77 | 3.2 | 9.7 | 0.00 | 0.00 | 0.00 | 60 | 1021.7 |
| 20260508115603 | 14 | 77 | 3.2 | 9.7 | 0.00 | 0.00 | 0.00 | 62 | 1021.7 |
| 20260508115104 | 15 | 77 | 3.2 | 9.7 | 0.00 | 0.00 | 0.00 | 62 | 1021.7 |
| 20260508114604 | 15 | 77 | 3.2 | 9.7 | 0.00 | 0.00 | 0.00 | 62 | 1021.7 |
| 20260508114104 | 15 | 77 | 3.2 | 9.7 | 0.00 | 0.00 | 0.00 | 61 | 1021.7 |
| 20260508113604 | 15 | 77 | 3.2 | 9.7 | 0.00 | 0.00 | 0.00 | 60 | 1021.6 |
| 20260508113104 | 15 | 77 | 3.2 | 9.7 | 0.00 | 0.00 | 0.00 | 61 | 1021.6 |
| 20260508112604 | 15 | 77 | 3.2 | 9.7 | 0.00 | 0.00 | 0.00 | 59 | 1021.5 |
| 20260508112104 | 15 | 77 | 3.2 | 9.7 | 0.00 | 0.00 | 0.00 | 60 | 1021.5 |
| 20260508111104 | 15 | 77 | 3.2 | 9.7 | 0.00 | 0.00 | 0.00 | 61 | 1021.4 |
| 20260508110604 | 15 | 77 | 3.2 | 9.7 | 0.00 | 0.00 | 0.00 | 60 | 1021.4 |
| 20260508110104 | 16 | 77 | 3.2 | 9.7 | 0.00 | 0.00 | 0.00 | 58 | 1021.3 |
| 20260508105603 | 16 | 77 | 3.2 | 9.7 | 0.00 | 0.00 | 0.00 | 57 | 1021.3 |
| 20260508105103 | 15 | 77 | 3.2 | 9.7 | 0.00 | 0.00 | 0.00 | 57 | 1021.2 |
| 20260508104104 | 16 | 77 | 3.2 | 9.7 | 0.00 | 0.00 | 0.00 | 60 | 1021.2 |
| 20260508103604 | 16 | 77 | 3.2 | 9.7 | 0.00 | 0.00 | 0.00 | 58 | 1021.2 |
| 20260508103104 | 16 | 77 | 3.2 | 9.7 | 0.00 | 0.00 | 0.00 | 55 | 1021.1 |
| 20260508102603 | 16 | 77 | 3.2 | 9.7 | 0.00 | 0.00 | 0.00 | 56 | 1021.1 |
| 20260508101604 | 16 | 77 | 3.2 | 9.7 | 0.00 | 0.00 | 0.00 | 57 | 1021.0 |
| 20260508101104 | 16 | 77 | 3.2 | 9.7 | 0.00 | 0.00 | 0.00 | 56 | 1020.9 |
| 20260508100604 | 16 | 77 | 3.2 | 9.7 | 0.00 | 0.00 | 0.00 | 56 | 1020.9 |
| 20260508100104 | 16 | 77 | 3.2 | 9.7 | 0.00 | 0.00 | 0.00 | 56 | 1020.9 |
| 20260508095604 | 16 | 77 | 3.2 | 9.7 | 0.00 | 0.00 | 0.00 | 56 | 1020.9 |
| 20260508095104 | 16 | 77 | 3.2 | 9.7 | 0.00 | 0.00 | 0.00 | 56 | 1020.8 |
| 20260508094604 | 16 | 77 | 3.2 | 9.7 | 0.00 | 0.00 | 0.00 | 56 | 1020.9 |
| 20260508093603 | 16 | 77 | 3.2 | 9.7 | 0.00 | 0.00 | 0.00 | 55 | 1020.8 |
| 20260508093104 | 17 | 77 | 3.2 | 9.7 | 0.00 | 0.00 | 0.00 | 55 | 1020.8 |
| 20260508090603 | 17 | 77 | 3.2 | 9.7 | 0.00 | 0.00 | 0.00 | 53 | 1021.0 |
| 20260508090103 | 17 | 77 | 3.2 | 9.7 | 0.00 | 0.00 | 0.00 | 53 | 1021.1 |
| 20260508085603 | 17 | 77 | 3.2 | 9.7 | 0.00 | 0.00 | 0.00 | 53 | 1021.1 |
| 20260508085103 | 17 | 77 | 3.2 | 9.7 | 0.00 | 0.00 | 0.00 | 53 | 1021.1 |
| 20260508084604 | 17 | 77 | 3.2 | 9.7 | 0.00 | 0.00 | 0.00 | 52 | 1021.2 |
| 20260508084103 | 17 | 77 | 3.2 | 9.7 | 0.00 | 0.00 | 0.00 | 51 | 1021.1 |
| 20260508083603 | 17 | 77 | 3.2 | 9.7 | 0.00 | 0.00 | 0.00 | 51 | 1021.1 |
| 20260508083104 | 17 | 77 | 3.2 | 9.7 | 0.00 | 0.00 | 0.00 | 52 | 1021.2 |
| 20260508082603 | 18 | 77 | 3.2 | 9.7 | 0.00 | 0.00 | 0.00 | 53 | 1021.2 |
| 20260508082103 | 18 | 77 | 3.2 | 9.7 | 0.00 | 0.00 | 0.00 | 52 | 1021.3 |
| 20260508081604 | 18 | 77 | 3.2 | 9.7 | 0.00 | 0.00 | 0.00 | 51 | 1021.2 |
| 20260508081104 | 18 | 77 | 3.2 | 9.7 | 0.00 | 0.00 | 0.00 | 50 | 1021.3 |
| 20260508080603 | 18 | 77 | 3.2 | 9.7 | 0.00 | 0.00 | 0.00 | 50 | 1021.4 |
| 20260508075604 | 18 | 77 | 3.2 | 9.7 | 0.00 | 0.00 | 0.00 | 50 | 1021.4 |
| 20260508075103 | 18 | 77 | 3.2 | 9.7 | 0.00 | 0.00 | 0.00 | 50 | 1021.5 |
| 20260508074104 | 18 | 77 | 3.2 | 9.7 | 0.00 | 0.00 | 0.00 | 50 | 1021.6 |
| 20260508073604 | 18 | 77 | 3.2 | 9.7 | 0.00 | 0.00 | 0.00 | 49 | 1021.6 |
| 20260508073103 | 18 | 77 | 3.2 | 9.7 | 0.00 | 0.00 | 0.00 | 49 | 1021.6 |
| 20260508072603 | 18 | 77 | 3.2 | 9.7 | 0.00 | 0.00 | 0.00 | 49 | 1021.7 |
| 20260508071604 | 19 | 77 | 3.2 | 9.7 | 0.00 | 0.00 | 0.00 | 50 | 1021.7 |
| 20260508071103 | 19 | 77 | 3.2 | 9.7 | 0.00 | 0.00 | 0.00 | 49 | 1021.7 |
| 20260508070603 | 19 | 77 | 3.2 | 9.7 | 0.00 | 0.00 | 0.00 | 48 | 1021.7 |
| 20260508065604 | 20 | 77 | 3.2 | 9.7 | 0.00 | 0.00 | 0.00 | 48 | 1021.7 |
| 20260508064604 | 20 | 77 | 3.2 | 9.7 | 0.00 | 0.00 | 0.00 | 48 | 1021.8 |
| 20260508063603 | 20 | 77 | 3.2 | 9.7 | 0.00 | 0.00 | 0.00 | 47 | 1021.7 |
| 20260508062104 | 20 | 77 | 3.2 | 9.7 | 0.00 | 0.00 | 0.00 | 46 | 1021.8 |
| 20260508061603 | 20 | 77 | 3.2 | 9.7 | 0.00 | 0.00 | 0.00 | 45 | 1021.8 |
| 20260508061103 | 20 | 77 | 3.2 | 9.7 | 0.00 | 0.00 | 0.00 | 45 | 1021.8 |
| 20260508060603 | 20 | 77 | 3.2 | 9.7 | 0.00 | 0.00 | 0.00 | 46 | 1021.8 |